www.pogodaiklimat.ru

Погода и климат >> Архив погоды >> Иран >> Бендер-Дейер


ПОГОДА в Бендер-Дейере

  • Прогноз погоды в Бендер-Дейере
  • Монитор погоды в Бендер-Дейере

АРХИВ ПОГОДЫ в Бендер-Дейере

Время (UTC), дата Ветер
(напр.,м/с)
 
Видим.   Явления Облачность Т
(С)
Тd
(С)
f
(%)
Тe
(С)
Тes
(С)
Комфортность P
(гПа)
Po
(гПа)
Тmin
(С)
Tmax
(С)
R
(мм)
R24
(мм)
S
(см)
21 14.04 СВ 2 10 км ясно +21.1 +14.7 67 +24 +24 комфорт 1010.9 1010.4
00 15.04 штиль 0 10 км ясно +19.6 +14.4 72 +21 +21 комфорт 1010.9 1010.4
03 15.04 СЗ 2 8000 м мгла ясно +19.6 +14.2 71 +22 +23 комфорт 1011.8 1011.3 +18.8
06 15.04 ЮЗ 1 8000 м мгла ясно +26.4 +30.1 100 +40 +56 опасность
солнечного
удара
1013.1 1012.6
09 15.04 ЮЗ 4 10 км ясно +27.6 +20.6 66 +34 +48 очень
душно
1012.7 1012.2
12 15.04 З 5 10 км ясно +29.6 +30.1 100 +53 +58 опасность
перегрева
1010.7 1010.2
15 15.04 З 3 10 км ясно +27.5 +15.2 47 +30 +30 жарко 1010.8 1010.3 +30.1
18 15.04 СВ 2 10 км ясно +23.6 +12.5 50 +26 +26 жарко 1012.5 1012.0
21 15.04 СЗ 3 10 км ясно +24.8 +7.4 33 +25 +25 комфорт 1012.0 1011.5
00 16.04 СЗ 4 10 км ясно +24.1 +6.8 33 +24 +24 комфорт 1010.2 1009.7
03 16.04 СЗ 2 10 км ясно +24.3 +7.8 35 +25 +26 комфорт 1011.3 1010.8 +22.8
06 16.04 ЮВ 3 8000 м мгла 1/0
[Ci fib]
+25.4 +18.1 64 +30 +41 душно 1012.4 1011.9
09 16.04 З 3 10 км 4/0
[Ci]
+31.2 +17.8 45 +35 +51 опасность
солнечного
удара
1012.1 1011.6
12 16.04 З 3 10 км 3/0
[Ac trans Ci fib]
+31.4 1009.8 1009.3
15 16.04 З 3 10 км 5/0
[Ci fib]
+29.9 +12.3 34 +31 +31 жарко 1010.2 1009.7 +32.0
18 16.04 штиль 0 10 км ясно +25.5 +15.8 55 +29 +29 душно 1011.5 1011.0
00 17.04 С 2 10 км ясно +22.3 +11.9 52 +25 +25 комфорт 1009.6 1009.1
03 17.04 С 2 10 км ясно +21.9 +10.4 48 +24 +25 комфорт 1011.2 1010.7 +21.1
06 17.04 ЮЗ 2 10 км ясно +26.6 1012.4 1011.9
09 17.04 ЮВ 2 10 км ясно +26.9 +22.5 77 +35 +56 опасность
солнечного
удара
1012.4 1011.9
12 17.04 ЮВ 2 10 км ясно +28.4 1011.1 1010.6
15 17.04 В 1 10 км ясно +26.4 +22.0 77 +34 +34 очень
душно
1010.3 1009.8 +29.2
18 17.04 ЮВ 1 10 км ясно +25.7 +20.0 71 +32 +32 очень
душно
1011.0 1010.5
21 17.04 штиль 0 10 км ясно +25.2 +16.6 59 +29 +29 душно 1010.5 1010.0
00 18.04 С 1 10 км ясно +22.8 +15.1 62 +27 +27 душно 1010.2 1009.7
03 18.04 С 2 10 км 4/0
[Ac trans]
+24.7 +11.3 43 +26 +27 жарко 1011.5 1011.0 +22.1
06 18.04 В 2 10 км 6/3 1050 м
[Sc Ac As]
+30.3 +30.1 99 +56 +63 опасность
перегрева
1013.1 1012.6
09 18.04 ЮВ 4 10 км 5/0
[Ac As]
+28.7 +19.3 57 +34 +43 очень
душно
1012.3 1011.8
12 18.04 ЮВ 5 10 км 5/0
[Ac As]
+27.7 +30.1 100 +45 +48 опасность
перегрева
1011.2 1010.7
15 18.04 ЮВ 4 10 км 1/0
[Ci fib]
+25.6 +22.5 83 +34 +34 очень
душно
1010.1 1009.6 +30.8
18 18.04 В 2 10 км 4/1 900 м
[Cu hum Ac trans Cs]
+25.3 +20.5 75 +31 +31 очень
душно
1011.1 1010.6
21 18.04 С 1 10 км 8/8 1050 м
[Sc Ac As Cs]
+24.9 +17.3 63 +29 +29 душно 1011.0 1010.5
00 19.04 С 2 8000 м мгла 9/3 1050 м
[Sc Ac As]
+24.1 +17.1 65 +28 +28 душно 1008.7 1008.2
03 19.04 штиль 0 8000 м в посл. час дождь 8/4 1050 м
[Sc Ac As]
+25.4 +15.4 54 +28 +29 жарко 1009.1 1008.6 +23.7
06 19.04 Ю 1 10 км {дождь} 8/3 1050 м
[Sc Ac As]
+30.2 0.0 14 +27 +33 жарко 1010.5 1010.0 0.1
09 19.04 ЮВ 7 10 км 8/3 1050 м
[Sc Ac As]
+28.4 +21.9 68 +37 +39 очень
душно
1011.4 1010.9
12 19.04 ЮВ 8 10 км 5/0
[Ac As]
+28.7 +18.4 54 +34 +35 очень
душно
1009.5 1009.0
15 19.04 ЮВ 7 10 км 8/4 1050 м
[Sc Ac As]
+27.2 +20.0 65 +33 +33 очень
душно
1007.8 1007.3 +30.2
18 19.04 З 1 10 км гроза без осадков 8/5 750 м
[Cb cap Ac As]
+27.8 +16.4 50 +31 +31 душно 1009.3 1008.8
21 19.04 З 2 10 км 8/4 1050 м
[Sc Ac As]
+27.6 +12.0 38 +29 +29 жарко 1008.5 1008.0
00 20.04 С 2 10 км 5/0
[Ac As]
+24.4 +13.0 49 +26 +26 жарко 1007.7 1007.2
03 20.04 СЗ 2 10 км 3/0
[Ci fib]
+25.2 +13.1 47 +27 +28 жарко 1007.9 1007.4 +24.2
06 20.04 штиль 0 8000 м пыль ясно +30.8 0.0 14 +28 +46 жарко 1009.1 1008.6
09 20.04 Ю 5 10 км 5/4 900 м
[Cu hum Ac trans Ci]
+28.0 +22.2 71 +37 +42 очень
душно
1008.8 1008.3
12 20.04 ЮВ 2 10 км ясно +27.9 1007.4 1006.9
15 20.04 ЮВ 2 10 км 4/0
[Ci fib]
+27.1 +21.3 71 +34 +34 очень
душно
1007.2 1006.7 +33.7
18 20.04 штиль 0 10 км 4/0
[Ci fib]
+25.2 +20.4 75 +31 +31 очень
душно
1007.9 1007.4
21 20.04 СЗ 4 10 км 4/0
[Ci fib]
+27.2 +13.9 44 +29 +29 жарко 1007.0 1006.5
00 21.04 СЗ 5 10 км 3/0
[Ci fib]
+26.8 +12.4 41 +28 +28 жарко 1005.9 1005.4
03 21.04 СЗ 4 10 км ясно +26.4 +12.4 42 +28 +29 жарко 1006.9 1006.4 +25.2
06 21.04 СЗ 4 8000 м пыль ясно +33.6 1007.5 1007.0
09 21.04 СЗ 3 10 км 4/0
[Ac trans]
+36.5 +10.6 21 +36 +49 очень
жарко
1006.8 1006.4
12 21.04 З 2 10 км 9/3 1050 м
[Sc Ac As]
+34.2 1004.9 1004.5
15 21.04 штиль 0 10 км 9/3 1050 м
[Sc Ac As]
+28.3 +22.5 71 +37 +37 очень
душно
1004.6 1004.1 +37.7
18 21.04 штиль 0 10 км {дождь} 6/3 1050 м
[Sc Ac As]
+27.7 +20.7 66 +35 +35 очень
душно
1005.9 1005.5 0.0

 

Местоположение метеостанции Бендер-Дейер (Иран): широта 27.83 долгота 51.93 высота над уровнем моря 4 м.

В архиве по умолчанию представлена погода в Бендер-Дейере за последнюю неделю. Архивные данные за месяц целиком и за предыдущие месяцы, начиная с января 2011 года, Вы можете получить, выбрав интересующий диапазон дат из раскрывающегося списка и нажав кнопку "Ввод!".


*Определитесь, кто Вы:
робот инопланетянин человек

Внимание! Время в таблицах - всемирное. Для получения местного времени необходимо прибавить поправку, которая равна 3.5 ч.

Смотрите также архив погоды в соседних городах и на ближайших метеорологических станциях:

Погода в Бушире (Иран) (163 км)
Погода в Бушир аэропорту (Иран) (167 км)
Погода в Ширазе (Иран) (198 км)
Погода в Фесе (Иран) (213 км)
Погода в Бахрейне (Бахрейн) (215 км)
Погода на Харке (Иран) (224 км)
Погода в Дахране (Саудовская Аравия) (246 км)
Погода на Острове Киш (Иран) (251 км)
Погода в Эд-Даммаме (Саудовская Аравия) (259 км)
Погода в Аэропорту Хамад (Катар) (287 км)

Пояснения к столбцам:

Ветер - указаны скорость ветра в м/с - средняя за 10 мин, порывы в срок и между сроками (в фигурных скобках) и направление, откуда дует ветер: С - северный, СВ - северо-восточный, В - восточный, ЮВ - юго-восточный, Ю - южный, ЮЗ - юго-западный, З - западный, СЗ - северо-западный.
Видимость - горизонтальная дальность видимости в метрах или километрах. При видимости от 1 до 10 км при отсутствии осадков обычно наблюдается дымка, при ухудшении видимости до 1 км и менее - туман. В сухую погоду видимость может ухудшаться дымом, пылью или мглою.
Явления - указаны атмосферные явления, наблюдавшиеся в срок или в последний час перед сроком; фигурными скобками обозначены явления, наблюдавшиеся между сроками (за 1-3 часа до срока); квадратными скобками обозначены град или гололедные отложения с указанием их диаметра в мм.
Облачность - указаны через наклонную черту общая и нижняя облачность в баллах и высота нижней границы облаков в метрах; квадратными скобками обозначены формы облаков: Ci - перистые, Cs - перисто-слоистые, Cc - перисто-кучевые, Ac - высококучевые, As - высокослоистые, Sc - слоисто-кучевые, Ns - слоисто-дождевые, Cu - кучевые, Cb - кучево-дождевые. Подробнее классификацию облаков см. в Атласе облаков (PDF).
T - Температура воздуха - температура, измеренная на высоте 2 м над землей.
Td - Температура точки росы - температура, при понижении до которой содержащийся в воздухе водяной пар достигнет насыщения.
f - Относительная влажность воздуха - влажноcть воздуха, измеренная на высоте 2 м над землей.
Te - Эффективная температура - температура, которую ощущает одетый по сезону человек в тени. Характеристика душности погоды. При расчете учитывается влияние влажности воздуха и скорости ветра на теплоощущения человека.
Tes - Эффективная температура на солнце - температура, которую ощущает человек, с поправкой на солнечный нагрев. Характеристика знойности погоды. Зависит от высоты солнца над горизонтом, облачности и скорости ветра. Ночью, в пасмурную погоду, а также при ветре 12 м/с и более поправка равна нулю.
P - Атмосферное давление - приведенное к уровню моря атмосферное давление.
Po - Атмосферное давление - измеренное на уровне метеостанции атмосферное давление.
Tmin - Минимальная температура - минимум температуры воздуха на высоте 2 м над землей.
Tmax - Максимальная температура - максимум температуры воздуха на высоте 2 м над землей.
R - Количество осадков - Количество выпавших осадков за период времени, мм. При наведении курсора мыши на число - период времени, за который выпало указанное количество осадков.
R24 - Количество осадков - Количество выпавших осадков за 24 часа, мм.
S - Снежный покров - Высота снежного покрова, см. При наведении курсора мыши на число - состояние снежного покрова и степень покрытия местности в баллах.